Location: Newark
(49.4642°N, 2.1122°E)
Time: 08:15:00
(UTC+00:00)

ISS - Visible Passes

Search period start: 15 May 2021 00:00
Search period end: 25 May 2021 00:00
Orbit: 417 x 422 km, 51.6° (Epoch: 15 May)

Date Brightness Start Highest point End Pass type
(mag) Time Alt. Az. Time Alt. Az. Time Alt. Az.
15 May -3.1 00:03:08 10° W 00:06:28 57° N 00:09:49 10° E visible
15 May -3.9 01:40:03 10° WNW 01:43:26 85° SSW 01:46:50 10° ESE visible
15 May -2.5 03:17:16 10° W 03:19:56 22° SW 03:22:34 10° SSE visible
15 May -2.0 20:03:54 10° S 20:05:47 14° SE 20:07:41 10° ESE visible
15 May -3.9 21:38:45 10° WSW 21:42:05 63° SSE 21:45:26 10° ENE visible
15 May -3.2 23:15:37 10° W 23:18:58 59° N 23:22:18 10° ENE visible
16 May -3.7 00:52:36 10° WNW 00:55:59 77° NNE 00:59:21 10° ESE visible
16 May -3.0 02:29:34 10° W 02:32:37 31° SW 02:35:39 10° SSE visible
16 May -3.5 20:51:28 10° SW 20:54:41 44° SSE 20:57:55 10° ENE visible
16 May -3.4 22:28:05 10° W 22:31:27 65° N 22:34:49 10° ENE visible
17 May -3.4 00:05:07 10° WNW 00:08:29 65° N 00:11:51 10° E visible
17 May -3.5 01:42:01 10° WNW 01:45:15 45° SSW 01:48:30 10° SE visible
17 May -3.6 21:40:35 10° WSW 21:43:57 77° NNW 21:47:20 10° ENE visible
17 May -3.2 23:17:38 10° WNW 23:20:59 59° N 23:22:53 23° ENE visible
18 May -1.9 00:54:30 10° WNW 00:55:46 21° WNW 00:55:46 21° WNW visible
18 May -3.8 20:53:06 10° WSW 20:56:29 84° SSE 20:59:53 10° ENE visible
18 May -3.1 22:30:07 10° W 22:33:27 57° N 22:36:27 12° E visible
19 May -2.9 00:07:01 10° WNW 00:09:22 41° WNW 00:09:22 41° WNW visible
19 May -3.2 21:42:35 10° W 21:45:55 59° N 21:49:16 10° ENE visible
19 May -3.7 23:19:33 10° WNW 23:22:56 77° NNE 23:23:11 71° ENE visible
20 May -3.3 20:55:03 10° W 20:58:24 65° N 21:01:46 10° ENE visible
20 May -3.4 22:32:04 10° WNW 22:35:25 65° N 22:37:05 27° E visible
21 May -1.7 00:08:57 10° WNW 00:10:01 18° W 00:10:01 18° W visible
21 May -3.2 21:44:34 10° WNW 21:47:54 59° N 21:51:02 11° E visible
21 May -3.1 23:21:26 10° WNW 23:23:58 44° W 23:23:58 44° W visible
22 May -3.1 20:57:01 10° W 21:00:21 57° N 21:03:41 10° E visible
22 May -3.9 22:33:56 10° WNW 22:37:19 85° SSW 22:37:57 56° ESE visible
23 May -3.7 21:46:26 10° WNW 21:49:50 77° NNE 21:51:57 21° E visible
23 May -1.9 23:23:26 10° W 23:24:53 20° W 23:24:53 20° W visible
24 May -3.4 20:58:57 10° WNW 21:02:18 65° N 21:05:40 10° E visible
24 May -3.3 22:35:50 10° WNW 22:38:54 44° SW 22:38:54 44° SW visible
